Location: Caixon
(43.4106°N, 0.0273°E)
Time: 16:14:47
(UTC+00:00)

Cosmos 1726 - Pass Details

Date: 16 October 2021
Orbit: 479 x 493 km, 82.5° (Epoch: 28 November)

Event Time Altitude Azimuth Distance (km) Brightness Sun altitude
Rises 05:41:46 0° 330° (NNW) 2,564 5.4 -6.8°
Reaches altitude 10° 05:44:52 10° 301° (WNW) 1,680 4.2 -6.3°
Maximum altitude 05:46:30 13° 274° (W) 1,520 3.9 -6.0°
Drops below altitude 10° 05:48:09 10° 248° (WSW) 1,678 4.3 -5.7°
Sets 05:51:15 0° 218° (SW) 2,556 5.4 -5.1°
